GW5014 Weather Reports


time (UTC)temp
C
wind
direction
speed
KPH
gust
KPH
rain 1hr
cm
rain 24hr
cm
rain mn
cm
humidity
%
barometer
mb
20260504081927 5 212 0.0 0.0 0.00 0.15 0.15 96 1005.4
20260504081424 5 191 0.0 0.0 0.00 0.15 0.15 96 1005.3
20260504080920 5 199 0.0 0.0 0.00 0.15 0.15 96 1005.4
20260504080417 5 205 0.0 0.0 0.00 0.15 0.15 96 1005.5
20260504070344 6 227 0.0 1.6 0.00 0.05 0.05 94 1005.7
20260504050732 5 209 0.0 0.0 0.00 0.00 0.00 89 1006.3
20260504050229 5 216 0.0 0.0 0.00 0.00 0.00 89 1006.2
20260504045726 5 210 0.0 1.6 0.00 0.00 0.00 89 1006.2
20260504045221 5 265 3.2 3.2 0.00 0.00 0.00 88 1006.4
20260504044719 4 199 0.0 0.0 0.00 0.00 0.00 88 1006.3
20260504044216 4 216 0.0 0.0 0.00 0.00 0.00 88 1006.4
20260504043713 4 238 0.0 0.0 0.00 0.00 0.00 89 1006.3
20260504043210 4 191 0.0 0.0 0.00 0.00 0.00 88 1006.7
20260504042708 4 214 0.0 0.0 0.00 0.00 0.00 88 1006.6
20260504042204 5 212 0.0 0.0 0.00 0.00 0.00 87 1006.7
20260504041659 5 195 0.0 0.0 0.00 0.00 0.00 86 1006.4
20260504041155 5 216 0.0 0.0 0.00 0.00 0.00 85 1006.6
20260504040653 5 212 0.0 0.0 0.00 0.00 0.00 84 1006.9
20260504040150 5 221 0.0 0.0 0.00 0.00 0.00 83 1006.9
20260504035646 5 203 0.0 0.0 0.00 0.00 0.00 82 1006.7
20260504035143 5 223 0.0 0.0 0.00 0.00 0.00 81 1006.9
20260504034641 5 203 0.0 0.0 0.00 0.00 0.00 81 1006.9
20260504034137 5 216 0.0 0.0 0.00 0.00 0.00 81 1006.8
20260504033635 5 239 1.6 1.6 0.00 0.00 0.00 80 1007.0
20260504033132 5 206 3.2 4.8 0.00 0.00 0.00 79 1007.0
20260504032629 5 213 0.0 1.6 0.00 0.00 0.00 78 1006.9
20260504032126 5 274 0.0 0.0 0.00 0.00 0.00 75 1006.9
20260504031623 6 311 1.6 3.2 0.00 0.00 0.00 71 1007.1
20260504031120 6 296 3.2 4.8 0.00 0.00 0.00 70 1007.0
20260504030616 6 248 0.0 0.0 0.00 0.00 0.00 68 1006.9
20260504030113 6 208 1.6 3.2 0.00 0.00 0.00 67 1006.8
20260504025610 6 328 1.6 3.2 0.00 0.00 0.00 66 1006.9
20260504025107 6 233 0.0 1.6 0.00 0.00 0.00 64 1006.8
20260504024604 5 253 0.0 0.0 0.00 0.00 0.00 64 1006.9
20260504024100 4 216 1.6 1.6 0.00 0.00 0.00 65 1007.0
20260504023557 4 204 0.0 0.0 0.00 0.00 0.00 64 1006.9
20260504023053 4 211 0.0 0.0 0.00 0.00 0.00 63 1007.0
20260504022549 4 211 0.0 0.0 0.00 0.00 0.00 61 1007.0
20260504022046 4 210 0.0 0.0 0.00 0.00 0.00 63 1006.9
20260504021543 3 209 0.0 0.0 0.00 0.00 0.00 61 1006.9
20260504021040 3 210 0.0 0.0 0.00 0.00 0.00 62 1007.0
20260504020537 3 210 0.0 0.0 0.00 0.00 0.00 61 1007.0
20260504020033 3 207 0.0 0.0 0.00 0.00 0.00 62 1007.0
20260504015530 3 208 0.0 0.0 0.00 0.00 0.00 60 1006.9
20260504015026 3 208 0.0 0.0 0.00 0.00 0.00 60 1007.0
20260504014522 3 207 0.0 0.0 0.00 0.00 0.00 60 1007.1
20260504014020 3 206 0.0 0.0 0.00 0.00 0.00 61 1007.0
20260504013517 3 207 0.0 0.0 0.00 0.00 0.00 60 1007.2
20260504013014 4 209 0.0 0.0 0.00 0.00 0.00 61 1006.9
20260504012511 4 194 0.0 0.0 0.00 0.00 0.00 59 1007.0
20260504012009 4 209 0.0 0.0 0.00 0.00 0.00 60 1007.1
20260504011506 4 211 0.0 0.0 0.00 0.00 0.00 59 1007.0
20260504011001 4 209 0.0 0.0 0.00 0.00 0.00 58 1007.2
20260504010458 4 205 0.0 0.0 0.00 0.00 0.00 58 1007.0
20260504005953 4 209 0.0 0.0 0.00 0.00 0.00 59 1007.0
20260504005450 4 209 0.0 0.0 0.00 0.00 0.00 57 1007.0
20260504004948 4 205 0.0 0.0 0.00 0.00 0.00 59 1006.9
20260504004446 4 203 0.0 0.0 0.00 0.00 0.00 58 1007.0
20260504003943 4 207 0.0 0.0 0.00 0.00 0.00 58 1007.0
20260504003438 4 202 0.0 0.0 0.00 0.00 0.00 58 1007.0
20260504002935 4 209 0.0 0.0 0.00 0.00 0.00 57 1007.1
20260504002432 5 203 0.0 0.0 0.00 0.00 0.00 57 1007.0
20260504001930 5 201 0.0 0.0 0.00 0.00 0.00 55 1006.9
20260504001427 5 217 0.0 0.0 0.00 0.00 0.00 50 1007.1
20260504000924 5 217 0.0 0.0 0.00 0.00 0.00 53 1007.1
20260504000423 5 205 0.0 0.0 0.00 0.00 0.00 53 1006.8
20260503235918 6 229 0.0 1.6 0.00 0.00 0.00 49 1007.0
20260503235416 6 214 0.0 0.0 0.00 0.00 0.00 47 1006.8
20260503234913 6 217 0.0 0.0 0.00 0.00 0.00 47 1006.7
20260503234411 6 215 1.6 1.6 0.00 0.00 0.00 45 1006.8
20260503233908 6 220 0.0 0.0 0.00 0.00 0.00 44 1006.8
20260503233404 7 220 0.0 0.0 0.00 0.00 0.00 44 1006.9
20260503232901 7 253 1.6 3.2 0.00 0.00 0.00 41 1006.7
20260503232358 7 292 0.0 1.6 0.00 0.00 0.00 42 1006.9
20260503231856 7 271 0.0 0.0 0.00 0.00 0.00 42 1006.7
20260503231353 8 252 1.6 3.2 0.00 0.00 0.00 42 1006.4
20260503230849 8 232 1.6 3.2 0.00 0.00 0.00 39 1006.7
20260503230346 8 243 3.2 3.2 0.00 0.00 0.00 39 1006.4
20260503225844 8 281 0.0 1.6 0.00 0.00 0.00 39 1006.6
20260503225339 8 229 0.0 1.6 0.00 0.00 0.00 40 1006.4
20260503224836 8 242 1.6 1.6 0.00 0.00 0.00 39 1006.6
20260503224333 8 212 3.2 4.8 0.00 0.00 0.00 39 1006.3
20260503223831 8 215 4.8 4.8 0.00 0.00 0.00 42 1006.4
20260503223328 8 290 4.8 4.8 0.00 0.00 0.00 41 1006.3
20260503222824 8 331 3.2 6.4 0.00 0.00 0.00 39 1006.3
20260503222323 8 210 1.6 3.2 0.00 0.00 0.00 40 1006.3
20260503221820 7 281 3.2 6.4 0.00 0.00 0.00 41 1006.3
20260503221319 7 226 4.8 6.4 0.00 0.00 0.00 43 1006.4
20260503220814 8 283 1.6 1.6 0.00 0.00 0.00 43 1006.6
20260503220312 8 209 0.0 0.0 0.00 0.00 0.00 43 1006.4
20260503215808 8 210 0.0 0.0 0.00 0.00 0.00 42 1006.6
20260503215305 8 217 1.6 1.6 0.00 0.00 0.00 43 1006.6
20260503214803 8 215 1.6 3.2 0.00 0.00 0.00 41 1006.6
20260503214300 8 279 1.6 3.2 0.00 0.00 0.00 41 1006.4
20260503213758 8 209 0.0 0.0 0.00 0.00 0.00 42 1006.4
20260503213255 8 294 0.0 0.0 0.00 0.00 0.00 41 1006.2
20260503212752 8 266 3.2 6.4 0.00 0.00 0.00 41 1006.3
20260503212249 8 221 0.0 0.0 0.00 0.00 0.00 42 1006.4
20260503211747 8 251 1.6 1.6 0.00 0.00 0.00 42 1006.6
20260503211243 8 231 1.6 3.2 0.00 0.00 0.00 41 1006.2
20260503210738 8 215 1.6 3.2 0.00 0.00 0.00 40 1006.2
20260503210236 7 223 3.2 4.8 0.00 0.00 0.00 41 1006.3
20260503205731 8 200 3.2 6.4 0.00 0.00 0.00 41 1006.4
20260503205228 8 224 3.2 4.8 0.00 0.00 0.00 42 1006.6
20260503204724 8 223 0.0 0.0 0.00 0.00 0.00 43 1006.3
20260503204222 7 211 0.0 0.0 0.00 0.00 0.00 43 1006.3
20260503203719 7 275 0.0 1.6 0.00 0.00 0.00 43 1006.6
20260503203216 7 18 3.2 3.2 0.00 0.00 0.00 42 1006.3
20260503202714 8 210 0.0 0.0 0.00 0.00 0.00 44 1006.2
20260503202212 8 241 3.2 4.8 0.00 0.00 0.00 41 1006.3
20260503201709 8 214 3.2 4.8 0.00 0.00 0.00 42 1006.6
20260503201206 8 220 1.6 3.2 0.00 0.00 0.00 40 1006.4
20260503200702 8 265 4.8 4.8 0.00 0.00 0.00 43 1006.7
20260503200159 7 212 0.0 1.6 0.00 0.00 0.00 43 1006.6
20260503195656 7 320 6.4 9.7 0.00 0.00 0.00 43 1006.7
20260503195153 7 214 0.0 1.6 0.00 0.00 0.00 43 1006.7
20260503194650 7 224 3.2 3.2 0.00 0.00 0.00 44 1006.7
20260503194145 8 192 0.0 0.0 0.00 0.00 0.00 43 1006.7
20260503193642 8 203 3.2 4.8 0.00 0.00 0.00 42 1007.0
20260503193138 8 224 0.0 1.6 0.00 0.00 0.00 42 1007.0
20260503192634 8 200 0.0 0.0 0.00 0.00 0.00 42 1006.8
20260503192129 8 194 12.9 14.5 0.00 0.00 0.00 40 1006.9
20260503191626 8 3 6.4 6.4 0.00 0.00 0.00 41 1007.0
20260503191124 8 190 0.0 0.0 0.00 0.00 0.00 44 1007.1
20260503190620 8 224 0.0 1.6 0.00 0.00 0.00 42 1007.0
20260503190117 8 219 3.2 4.8 0.00 0.00 0.00 39 1006.9
20260503185614 8 292 0.0 0.0 0.00 0.00 0.00 40 1007.0
20260503185114 7 278 0.0 1.6 0.00 0.00 0.00 43 1007.1
20260503184609 7 245 1.6 3.2 0.00 0.00 0.00 41 1007.0
20260503184106 8 272 3.2 4.8 0.00 0.00 0.00 43 1007.0
20260503183603 8 218 0.0 1.6 0.00 0.00 0.00 41 1007.1
20260503183100 8 252 0.0 1.6 0.00 0.00 0.00 45 1007.2
20260503182558 8 210 0.0 0.0 0.00 0.00 0.00 42 1007.3
20260503182056 7 325 1.6 3.2 0.00 0.00 0.00 41 1007.3
20260503181553 7 175 4.8 6.4 0.00 0.00 0.00 42 1007.2
20260503181049 7 222 1.6 3.2 0.00 0.00 0.00 44 1007.2
20260503180547 7 343 1.6 1.6 0.00 0.00 0.00 42 1007.3
20260503180044 7 222 3.2 4.8 0.00 0.00 0.00 45 1007.2
20260503175541 7 226 3.2 4.8 0.00 0.00 0.00 43 1007.3
20260503175038 7 222 0.0 0.0 0.00 0.00 0.00 45 1007.4
20260503174535 7 75 1.6 1.6 0.00 0.00 0.00 47 1007.4
20260503174031 7 234 0.0 0.0 0.00 0.00 0.00 46 1007.4
20260503173526 7 203 0.0 0.0 0.00 0.00 0.00 47 1007.4
20260503173023 6 216 1.6 3.2 0.00 0.00 0.00 49 1007.4
20260503172521 6 217 3.2 4.8 0.00 0.00 0.00 47 1007.5
20260503172018 7 214 0.0 1.6 0.00 0.00 0.00 49 1007.4
20260503171514 7 241 1.6 3.2 0.00 0.00 0.00 48 1007.6
20260503171012 7 239 3.2 4.8 0.00 0.00 0.00 47 1007.7
20260503170508 6 222 0.0 0.0 0.00 0.00 0.00 49 1007.7
20260503150900 5 219 0.0 0.0 0.00 0.00 0.00 61 1008.6
20260503150356 5 266 1.6 1.6 0.00 0.00 0.00 63 1008.6
20260503131250 4 216 0.0 0.0 0.00 0.00 0.00 67 1009.3
20260503130748 4 254 0.0 0.0 0.00 0.00 0.00 70 1009.3
20260503130245 4 241 0.0 0.0 0.00 0.00 0.00 69 1009.3
20260503120211 2 208 0.0 0.0 0.00 0.00 0.00 81 1009.5
20260503110638 1 239 0.0 0.0 0.00 0.00 0.00 86 1009.2
20260503110136 1 218 0.0 0.0 0.00 0.00 0.00 87 1009.1